EW7774 Weather Reports


Display with metric or nautical units.
time (UTC)temp
F
wind
direction
speed
MPH
gust
MPH
rain 1hr
in
rain 24hr
in
rain mn
in
humidity
%
barometer
mb
20260509160526 67 0 0.0 4.0 0.00 0.00 0.00 59 1010.8
20260509160329 68 183 0.0 4.0 0.00 0.00 0.00 59 1010.4
20260509160039 68 209 0.0 5.0 0.00 0.00 0.00 58 1010.8
20260509155815 69 180 0.0 5.0 0.00 0.00 0.00 61 1010.3
20260509155525 68 0 0.0 5.0 0.00 0.00 0.00 59 1010.8
20260509155320 69 181 1.0 5.0 0.00 0.00 0.00 59 1010.5
20260509155029 68 117 0.0 3.0 0.00 0.00 0.00 62 1010.9
20260509154824 68 180 0.0 3.0 0.00 0.00 0.00 63 1010.5
20260509154537 67 0 0.0 3.0 0.00 0.00 0.00 63 1010.9
20260509154332 67 163 0.0 2.0 0.00 0.00 0.00 63 1010.5
20260509154025 66 0 0.0 0.0 0.00 0.00 0.00 62 1011.0
20260509153835 66 113 0.0 0.0 0.00 0.00 0.00 62 1010.6
20260509153525 66 0 0.0 3.0 0.00 0.00 0.00 61 1011.0
20260509153340 66 113 0.0 3.0 0.00 0.00 0.00 63 1010.6
20260509153044 65 0 0.0 3.0 0.00 0.00 0.00 65 1011.1
20260509152826 66 114 0.0 3.0 0.00 0.00 0.00 61 1010.7
20260509152525 65 0 0.0 8.0 0.00 0.00 0.00 61 1011.1
20260509152350 66 203 0.0 7.0 0.00 0.00 0.00 62 1010.8
20260509152027 65 0 0.0 8.0 0.00 0.00 0.00 60 1011.2
20260509151833 66 113 1.0 7.0 0.00 0.00 0.00 62 1010.8
20260509151541 65 149 0.0 3.0 0.00 0.00 0.00 61 1011.1
20260509151317 66 162 0.0 3.0 0.00 0.00 0.00 66 1010.8
20260509151025 65 0 0.0 3.0 0.00 0.00 0.00 62 1011.1
20260509150824 65 198 1.0 3.0 0.00 0.00 0.00 62 1010.7
20260509150529 64 0 0.0 3.0 0.00 0.00 0.00 65 1011.2
20260509150352 65 86 0.0 3.0 0.00 0.00 0.00 63 1010.9
20260509150039 64 0 0.0 5.0 0.00 0.00 0.00 65 1011.2
20260509145816 64 173 0.0 5.0 0.00 0.00 0.00 64 1010.9
20260509145526 63 177 0.0 5.0 0.00 0.00 0.00 64 1011.3
20260509145323 64 84 1.0 5.0 0.00 0.00 0.00 65 1011.0
20260509145025 63 249 0.0 4.0 0.00 0.00 0.00 64 1011.4
20260509144848 63 202 1.0 4.0 0.00 0.00 0.00 64 1011.1
20260509144537 62 0 0.0 4.0 0.00 0.00 0.00 64 1011.4
20260509144330 63 175 1.0 4.0 0.00 0.00 0.00 68 1011.1
20260509144025 62 0 0.0 3.0 0.00 0.00 0.00 66 1011.4
20260509143835 62 175 0.0 3.0 0.00 0.00 0.00 67 1011.3
20260509143526 61 0 0.0 3.0 0.00 0.00 0.00 67 1011.4
20260509143320 62 162 0.0 3.0 0.00 0.00 0.00 67 1011.3
20260509143050 61 217 0.0 1.0 0.00 0.00 0.00 66 1011.6
20260509142824 61 128 0.0 0.0 0.00 0.00 0.00 67 1011.4
20260509142526 61 0 0.0 3.0 0.00 0.00 0.00 66 1011.7
20260509142329 61 154 0.0 3.0 0.00 0.00 0.00 68 1011.5
20260509142025 61 0 0.0 3.0 0.00 0.00 0.00 67 1011.8
20260509141816 61 173 0.0 3.0 0.00 0.00 0.00 69 1011.4
20260509141545 60 0 0.0 3.0 0.00 0.00 0.00 67 1011.7
20260509141321 61 206 0.0 3.0 0.00 0.00 0.00 67 1011.4
20260509141025 60 0 0.0 3.0 0.00 0.00 0.00 66 1011.6
20260509140829 61 259 1.0 3.0 0.00 0.00 0.00 67 1011.3
20260509140525 60 0 0.0 3.0 0.00 0.00 0.00 67 1011.5
20260509140333 61 169 1.0 3.0 0.00 0.00 0.00 67 1011.3
20260509140048 60 0 0.0 3.0 0.00 0.00 0.00 65 1011.4
20260509135816 61 185 0.0 3.0 0.00 0.00 0.00 66 1011.2
20260509135530 60 0 0.0 3.0 0.00 0.00 0.00 66 1011.5
20260509135341 61 188 1.0 3.0 0.00 0.00 0.00 66 1011.2
20260509135026 60 0 0.0 3.0 0.00 0.00 0.00 65 1011.5
20260509134825 60 168 0.0 3.0 0.00 0.00 0.00 67 1011.4
20260509134550 60 0 0.0 3.0 0.00 0.00 0.00 66 1011.6
20260509134329 60 167 1.0 3.0 0.00 0.00 0.00 68 1011.4
20260509134026 60 0 0.0 1.0 0.00 0.00 0.00 66 1011.6
20260509133817 60 274 0.0 1.0 0.00 0.00 0.00 65 1011.4
20260509133525 60 0 0.0 2.0 0.00 0.00 0.00 65 1011.6
20260509133321 60 198 0.0 2.0 0.00 0.00 0.00 65 1011.4
20260509133042 60 0 0.0 2.0 0.00 0.00 0.00 65 1011.7
20260509132830 60 209 0.0 2.0 0.00 0.00 0.00 66 1011.4
20260509132526 60 0 0.0 3.0 0.00 0.00 0.00 68 1011.7
20260509132314 60 169 0.0 3.0 0.00 0.00 0.00 68 1011.4
20260509132025 60 0 0.0 3.0 0.00 0.00 0.00 68 1011.6
20260509131822 60 177 0.0 2.0 0.00 0.00 0.00 68 1011.4
20260509131537 59 0 0.0 0.0 0.00 0.00 0.00 66 1011.6
20260509131329 60 187 0.0 0.0 0.00 0.00 0.00 67 1011.4
20260509131026 59 0 0.0 0.0 0.00 0.00 0.00 66 1011.6
20260509130834 60 186 0.0 0.0 0.00 0.00 0.00 67 1011.4
20260509130526 59 0 0.0 0.0 0.00 0.00 0.00 66 1011.6
20260509130317 60 177 0.0 0.0 0.00 0.00 0.00 66 1011.5
20260509130037 59 0 0.0 0.0 0.00 0.00 0.00 65 1011.7
20260509125822 60 208 0.0 0.0 0.00 0.00 0.00 66 1011.4
20260509125525 59 0 0.0 0.0 0.00 0.00 0.00 65 1011.8
20260509125326 60 177 0.0 0.0 0.00 0.00 0.00 65 1011.6
20260509125025 59 0 0.0 0.0 0.00 0.00 0.00 65 1011.7
20260509124835 60 177 0.0 0.0 0.00 0.00 0.00 66 1011.5
20260509124545 59 0 0.0 0.0 0.00 0.00 0.00 65 1011.7
20260509124319 60 177 0.0 0.0 0.00 0.00 0.00 66 1011.5
20260509124025 59 0 0.0 3.0 0.00 0.00 0.00 65 1011.6
20260509123844 59 135 0.0 3.0 0.00 0.00 0.00 66 1011.4
20260509123525 59 0 0.0 3.0 0.00 0.00 0.00 65 1011.6
20260509123327 59 221 0.0 3.0 0.00 0.00 0.00 66 1011.4
20260509123043 59 0 0.0 3.0 0.00 0.00 0.00 66 1011.5
20260509122831 59 177 1.0 3.0 0.00 0.00 0.00 67 1011.2
20260509122526 58 0 0.0 3.0 0.00 0.00 0.00 67 1011.4
20260509122321 59 354 0.0 0.0 0.00 0.00 0.00 67 1011.1
20260509122025 58 0 0.0 4.0 0.00 0.00 0.00 67 1011.4
20260509121829 58 189 0.0 4.0 0.00 0.00 0.00 67 1011.2
20260509121541 58 0 0.0 4.0 0.00 0.00 0.00 65 1011.5
20260509121317 58 210 0.0 4.0 0.00 0.00 0.00 65 1011.2
20260509121026 58 0 0.0 3.0 0.00 0.00 0.00 68 1011.4
20260509120821 58 177 0.0 3.0 0.00 0.00 0.00 67 1011.2
20260509120526 58 0 0.0 7.0 0.00 0.00 0.00 66 1011.4
20260509120325 58 175 0.0 5.0 0.00 0.00 0.00 66 1011.2
20260509120038 58 0 0.0 7.0 0.00 0.00 0.00 65 1011.4
20260509115832 58 175 1.0 7.0 0.00 0.00 0.00 67 1011.2
20260509115526 57 0 0.0 7.0 0.00 0.00 0.00 66 1011.5
20260509115316 58 173 0.0 2.0 0.00 0.00 0.00 65 1011.2
20260509115025 57 0 0.0 7.0 0.00 0.00 0.00 64 1011.5
20260509114820 58 165 0.0 6.0 0.00 0.00 0.00 65 1011.3
20260509114554 57 201 0.0 8.0 0.00 0.00 0.00 63 1011.4
20260509114324 58 176 1.0 7.0 0.00 0.00 0.00 64 1011.2
20260509114030 57 0 1.0 8.0 0.00 0.00 0.00 64 1011.3
20260509113828 58 106 3.0 7.0 0.00 0.00 0.00 63 1011.1
20260509113526 57 0 0.0 7.0 0.00 0.00 0.00 63 1011.3
20260509113313 58 172 0.0 6.0 0.00 0.00 0.00 63 1011.0
20260509113045 57 0 0.0 7.0 0.00 0.00 0.00 63 1011.2
20260509112824 57 183 1.0 6.0 0.00 0.00 0.00 65 1011.0
20260509112525 57 0 0.0 7.0 0.00 0.00 0.00 63 1011.3
20260509112329 57 180 0.0 6.0 0.00 0.00 0.00 64 1011.0
20260509112057 56 0 0.0 7.0 0.00 0.00 0.00 64 1011.2
20260509111816 57 200 327.0 5.0 0.00 0.00 0.00 65 1011.0
20260509111541 56 0 0.0 5.0 0.00 0.00 0.00 65 1011.2
20260509111319 56 0.0 0.0 0.00 0.00 0.00 66 1010.9
20260509111025 56 0 0.0 6.0 0.00 0.00 0.00 67 1011.2
20260509110827 56 0.0 0.0 0.00 0.00 0.00 67 1010.9
20260509110525 55 0 1.0 6.0 0.00 0.00 0.00 66 1011.1
20260509110334 56 0.0 0.0 0.00 0.00 0.00 68 1010.8
20260509110043 55 0 0.0 3.0 0.00 0.00 0.00 66 1011.1
20260509105820 55 0.0 0.0 0.00 0.00 0.00 69 1010.9
20260509105531 55 0 0.0 0.0 0.00 0.00 0.00 70 1011.1
20260509105348 55 0.0 0.0 0.00 0.00 0.00 70 1010.8
20260509105025 55 0.0 0.0 0.00 0.00 0.00 69 1011.2
20260509104813 55 0.0 0.0 0.00 0.00 0.00 70 1010.9
20260509104538 55 0.0 0.0 0.00 0.00 0.00 69 1011.1
20260509104341 55 0.0 0.0 0.00 0.00 0.00 69 1010.9
20260509104026 55 0.0 0.0 0.00 0.00 0.00 68 1011.1
20260509103828 55 0.0 0.0 0.00 0.00 0.00 67 1010.8
20260509103525 55 0.0 0.0 0.00 0.00 0.00 67 1011.1
20260509103355 55 0.0 0.0 0.00 0.00 0.00 67 1010.7
20260509103038 55 0.0 0.0 0.00 0.00 0.00 67 1011.0
20260509102818 55 0.0 0.0 0.00 0.00 0.00 67 1010.7
20260509102527 55 0.0 0.0 0.00 0.00 0.00 67 1011.0
20260509102346 55 0.0 0.0 0.00 0.00 0.00 68 1010.6
20260509102026 55 0.0 0.0 0.00 0.00 0.00 67 1010.9
20260509101833 56 0.0 0.0 0.00 0.00 0.00 67 1010.7
20260509101545 55 0.0 0.0 0.00 0.00 0.00 66 1011.0
20260509101317 56 0.0 0.0 0.00 0.00 0.00 66 1010.8
20260509101025 55 0.0 0.0 0.00 0.00 0.00 65 1011.0
20260509100842 56 0.0 0.0 0.00 0.00 0.00 66 1010.6
20260509100525 55 0.0 0.0 0.00 0.00 0.00 65 1010.9
20260509100325 56 0.0 0.0 0.00 0.00 0.00 64 1010.6
20260509100038 55 0.0 0.0 0.00 0.00 0.00 65 1010.9
20260509095833 56 0.0 0.0 0.00 0.00 0.00 65 1010.6
20260509095526 55 0.0 0.0 0.00 0.00 0.00 65 1010.9
20260509095316 56 0.0 0.0 0.00 0.00 0.00 65 1010.5
20260509095026 55 0.0 0.0 0.00 0.00 0.00 64 1010.8
20260509094824 56 0.0 0.0 0.00 0.00 0.00 64 1010.6
20260509094545 56 0.0 0.0 0.00 0.00 0.00 63 1010.8
20260509094352 56 0.0 0.0 0.00 0.00 0.00 64 1010.6
20260509094025 56 0.0 0.0 0.00 0.00 0.00 64 1010.9
20260509093818 56 0.0 0.0 0.00 0.00 0.00 64 1010.6
20260509093525 56 0.0 0.0 0.00 0.00 0.00 63 1010.9
20260509093326 56 0.0 0.0 0.00 0.00 0.00 63 1010.7
20260509093038 56 0.0 0.0 0.00 0.00 0.00 62 1011.1
20260509092814 57 0.0 0.0 0.00 0.00 0.00 63 1010.8
20260509092526 56 0.0 0.0 0.00 0.00 0.00 63 1011.1
20260509092322 57 0.0 0.0 0.00 0.00 0.00 63 1010.8
20260509092025 56 0.0 0.0 0.00 0.00 0.00 62 1011.1
20260509091813 57 0.0 0.0 0.00 0.00 0.00 62 1010.8
20260509091538 56 0.0 0.0 0.00 0.00 0.00 62 1011.1
20260509091321 57 0.0 0.0 0.00 0.00 0.00 62 1010.8
20260509091025 56 0.0 0.0 0.00 0.00 0.00 61 1011.2
20260509090825 57 0.0 0.0 0.00 0.00 0.00 61 1010.9
20260509090526 57 0.0 0.0 0.00 0.00 0.00 61 1011.2
20260509090329 57 0.0 0.0 0.00 0.00 0.00 62 1010.9
20260509090038 57 0.0 0.0 0.00 0.00 0.00 61 1011.2
20260509085816 57 0.0 0.0 0.00 0.00 0.00 61 1010.9
20260509085525 57 0.0 0.0 0.00 0.00 0.00 61 1011.2
20260509085321 57 0.0 0.0 0.00 0.00 0.00 61 1011.0
20260509085025 57 0.0 0.0 0.00 0.00 0.00 61 1011.3
20260509084829 57 0.0 0.0 0.00 0.00 0.00 62 1010.9
20260509084549 57 0.0 0.0 0.00 0.00 0.00 60 1011.3
20260509084354 58 0.0 0.0 0.00 0.00 0.00 61 1011.0
20260509084026 57 0.0 0.0 0.00 0.00 0.00 60 1011.3
20260509083838 58 0.0 0.0 0.00 0.00 0.00 61 1011.1
20260509083529 57 0.0 0.0 0.00 0.00 0.00 60 1011.4
20260509083321 58 0.0 0.0 0.00 0.00 0.00 60 1011.1
20260509083042 57 0.0 0.0 0.00 0.00 0.00 60 1011.3
20260509082824 58 0.0 0.0 0.00 0.00 0.00 59 1011.2
20260509082525 58 0.0 0.0 0.00 0.00 0.00 60 1011.4
20260509082316 58 0.0 0.0 0.00 0.00 0.00 59 1011.3
20260509082025 58 0.0 0.0 0.00 0.00 0.00 58 1011.6
20260509081819 58 0.0 0.0 0.00 0.00 0.00 59 1011.3
20260509081542 58 0.0 0.0 0.00 0.00 0.00 57 1011.6
20260509081324 58 0.0 0.0 0.00 0.00 0.00 60 1011.4
20260509081026 58 0.0 0.0 0.00 0.00 0.00 57 1011.6
20260509080849 58 0.0 0.0 0.00 0.00 0.00 57 1011.5
20260509080525 58 0.0 0.0 0.00 0.00 0.00 57 1011.8
20260509080333 58 0.0 0.0 0.00 0.00 0.00 58 1011.6
20260509080055 58 0.0 0.0 0.00 0.00 0.00 58 1011.8
20260509075817 58 0.0 0.0 0.00 0.00 0.00 58 1011.6
20260509075527 58 0.0 0.0 0.00 0.00 0.00 59 1011.9
20260509075322 58 0.0 0.0 0.00 0.00 0.00 58 1011.6
20260509075028 58 0.0 0.0 0.00 0.00 0.00 57 1011.8
20260509074830 58 0.0 0.0 0.00 0.00 0.00 57 1011.5
20260509074546 58 0.0 0.0 0.00 0.00 0.00 57 1011.8
20260509074314 58 0.0 0.0 0.00 0.00 0.00 57 1011.4
20260509074025 58 0.0 0.0 0.00 0.00 0.00 58 1011.7
20260509073822 58 0.0 0.0 0.00 0.00 0.00 57 1011.5
20260509073526 57 0.0 0.0 0.00 0.00 0.00 59 1011.8
20260509073348 58 0.0 0.0 0.00 0.00 0.00 59 1011.6
20260509073137 57 0.0 0.0 0.00 0.00 0.00 58 1011.8
20260509072830 58 0.0 0.0 0.00 0.00 0.00 58 1011.5
20260509072526 57 0.0 0.0 0.00 0.00 0.00 58 1011.8
20260509072322 58 0.0 0.0 0.00 0.00 0.00 59 1011.5
20260509072026 57 0.0 0.0 0.00 0.00 0.00 58 1011.8
20260509071826 58 0.0 0.0 0.00 0.00 0.00 58 1011.4
20260509071546 57 0.0 0.0 0.00 0.00 0.00 59 1011.7
20260509071331 58 0.0 0.0 0.00 0.00 0.00 59 1011.4
20260509071025 57 0.0 0.0 0.00 0.00 0.00 58 1011.8
20260509070819 58 0.0 0.0 0.00 0.00 0.00 59 1011.5
20260509070526 57 0.0 0.0 0.00 0.00 0.00 58 1011.8
20260509070324 58 0.0 0.0 0.00 0.00 0.00 59 1011.5
20260509070043 57 0.0 0.0 0.00 0.00 0.00 58 1011.8
20260509065831 57 0.0 0.0 0.00 0.00 0.00 59 1011.5
20260509065530 57 0.0 0.0 0.00 0.00 0.00 60 1011.8
20260509065317 57 0.0 0.0 0.00 0.00 0.00 60 1011.5
20260509065026 57 0.0 0.0 0.00 0.00 0.00 60 1011.8
20260509064822 57 0.0 0.0 0.00 0.00 0.00 60 1011.5
20260509064543 56 0.0 0.0 0.00 0.00 0.00 61 1011.8
20260509064326 57 0.0 0.0 0.00 0.00 0.00 61 1011.5
20260509064026 56 0.0 0.0 0.00 0.00 0.00 60 1011.9
20260509063835 57 0.0 0.0 0.00 0.00 0.00 62 1011.6
20260509063528 56 0.0 0.0 0.00 0.00 0.00 61 1011.9
20260509063324 57 0.0 0.0 0.00 0.00 0.00 62 1011.6
20260509063044 56 0.0 0.0 0.00 0.00 0.00 61 1012.0
20260509062828 56 0.0 0.0 0.00 0.00 0.00 62 1011.7
20260509062526 56 0.0 0.0 0.00 0.00 0.00 62 1012.0
20260509062316 56 0.0 0.0 0.00 0.00 0.00 62 1011.7
20260509062028 56 0.0 0.0 0.00 0.00 0.00 61 1012.1
20260509061824 56 0.0 0.0 0.00 0.00 0.00 62 1011.8
20260509061552 56 0.0 0.0 0.00 0.00 0.00 61 1012.1
20260509061330 56 0.0 0.0 0.00 0.00 0.00 62 1011.8
20260509061025 56 0.0 0.0 0.00 0.00 0.00 62 1012.1
20260509060819 56 0.0 0.0 0.00 0.00 0.00 62 1011.8
20260509060526 56 0.0 0.0 0.00 0.00 0.00 61 1012.2
20260509060326 56 0.0 0.0 0.00 0.00 0.00 62 1011.8
20260509060044 56 0.0 0.0 0.00 0.00 0.00 63 1012.2
20260509055814 56 0.0 0.0 0.00 0.00 0.00 62 1011.8
20260509055527 56 0.0 0.0 0.00 0.00 0.00 62 1012.1
20260509055342 56 0.0 0.0 0.00 0.00 0.00 64 1011.8
20260509055029 56 0.0 0.0 0.00 0.00 0.00 63 1012.0
20260509054849 56 0.0 0.0 0.00 0.00 0.00 63 1011.8
20260509054546 56 0.0 0.0 0.00 0.00 0.00 62 1012.1
20260509054314 56 0.0 0.0 0.00 0.00 0.00 63 1011.8
20260509054026 56 0.0 0.0 0.00 0.00 0.00 62 1012.1
20260509053827 56 0.0 0.0 0.00 0.00 0.00 62 1011.8
20260509053525 56 0.0 0.0 0.00 0.00 0.00 62 1012.2
20260509053334 56 0.0 0.0 0.00 0.00 0.00 62 1011.9
20260509053043 56 0.0 0.0 0.00 0.00 0.00 62 1012.2
20260509052818 57 0.0 0.0 0.00 0.00 0.00 62 1011.9
20260509052524 56 0.0 0.0 0.00 0.00 0.00 62 1012.2
20260509052323 57 0.0 0.0 0.00 0.00 0.00 62 1011.9
20260509052026 56 0.0 0.0 0.00 0.00 0.00 61 1012.3
20260509051848 57 0.0 0.0 0.00 0.00 0.00 61 1011.9
20260509051539 56 0.0 0.0 0.00 0.00 0.00 60 1012.4
20260509051331 57 0.0 0.0 0.00 0.00 0.00 62 1011.9
20260509051026 56 0.0 0.0 0.00 0.00 0.00 60 1012.3
20260509050816 57 0.0 0.0 0.00 0.00 0.00 60 1012.0
20260509050528 57 0.0 0.0 0.00 0.00 0.00 59 1012.4
20260509050319 57 0.0 0.0 0.00 0.00 0.00 60 1011.9
20260509050045 57 0.0 0.0 0.00 0.00 0.00 59 1012.4
20260509045826 57 0.0 0.0 0.00 0.00 0.00 59 1011.9
20260509045528 57 0.0 0.0 0.00 0.00 0.00 59 1012.4
20260509045313 57 0.0 0.0 0.00 0.00 0.00 59 1011.9
20260509045028 57 0.0 0.0 0.00 0.00 0.00 58 1012.2
20260509044822 57 0.0 0.0 0.00 0.00 0.00 59 1011.8
20260509044545 57 0.0 0.0 0.00 0.00 0.00 59 1012.3
20260509044333 57 0.0 0.0 0.00 0.00 0.00 60 1011.9
20260509044026 57 0.0 0.0 0.00 0.00 0.00 58 1012.3
20260509043817 58 0.0 0.0 0.00 0.00 0.00 59 1011.9
20260509043529 57 0.0 0.0 0.00 0.00 0.00 59 1012.3
20260509043320 58 0.0 0.0 0.00 0.00 0.00 59 1011.9
20260509043049 57 0.0 0.0 0.00 0.00 0.00 59 1012.4
20260509042823 58 0.0 0.0 0.00 0.00 0.00 59 1011.9
20260509042525 57 0.0 0.0 0.00 0.00 0.00 59 1012.3
20260509042330 58 0.0 0.0 0.00 0.00 0.00 60 1011.9
20260509042026 57 0.0 0.0 0.00 0.00 0.00 59 1012.3
20260509041818 57 0.0 0.0 0.00 0.00 0.00 59 1011.9
20260509041546 57 0.0 0.0 0.00 0.00 0.00 60 1012.4
20260509041325 57 0.0 0.0 0.00 0.00 0.00 61 1011.9
20260509041026 57 0.0 0.0 0.00 0.00 0.00 60 1012.3
20260509040832 57 0.0 0.0 0.00 0.00 0.00 62 1011.9
20260509040526 57 0.0 0.0 0.00 0.00 0.00 60 1012.3
20260509040317 57 0.0 0.0 0.00 0.00 0.00 60 1011.9
20260509040052 57 0.0 0.0 0.00 0.00 0.00 60 1012.3
20260509035842 57 0.0 0.0 0.00 0.00 0.00 61 1012.0
20260509035526 57 0.0 0.0 0.00 0.00 0.00 61 1012.3
20260509035326 57 0.0 0.0 0.00 0.00 0.00 61 1012.0
20260509035026 56 0.0 0.0 0.00 0.00 0.00 61 1012.4
20260509034816 57 0.0 0.0 0.00 0.00 0.00 62 1012.0
20260509034543 56 0.0 0.0 0.00 0.00 0.00 61 1012.3
20260509034325 57 0.0 0.0 0.00 0.00 0.00 61 1012.0
20260509034026 56 0.0 0.0 0.00 0.00 0.00 62 1012.3
20260509033832 57 0.0 0.0 0.00 0.00 0.00 62 1011.9
20260509033525 56 0.0 0.0 0.00 0.00 0.00 62 1012.4
20260509033318 56 0.0 0.0 0.00 0.00 0.00 63 1012.0
20260509033043 56 0.0 0.0 0.00 0.00 0.00 62 1012.3
20260509032842 56 0.0 0.0 0.00 0.00 0.00 64 1012.0
20260509032527 55 0.0 0.0 0.00 0.00 0.00 63 1012.4
20260509032350 56 0.0 0.0 0.00 0.00 0.00 64 1011.9
20260509032026 55 0.0 0.0 0.00 0.00 0.00 63 1012.3
20260509031833 56 0.0 0.0 0.00 0.00 0.00 64 1012.0
20260509031543 55 0.0 0.0 0.00 0.00 0.00 65 1012.4
20260509031318 56 0.0 0.0 0.00 0.00 0.00 64 1012.1
20260509031025 55 0.0 0.0 0.00 0.00 0.00 64 1012.4
20260509030824 56 0.0 0.0 0.00 0.00 0.00 65 1012.1
20260509030528 56 0.0 0.0 0.00 0.00 0.00 64 1012.5
20260509030328 56 0.0 0.0 0.00 0.00 0.00 65 1012.1
20260509030041 56 0.0 0.0 0.00 0.00 0.00 65 1012.5
20260509025832 56 0.0 0.0 0.00 0.00 0.00 65 1012.2
20260509025525 56 0.0 0.0 0.00 0.00 0.00 63 1012.7
20260509025321 57 0.0 0.0 0.00 0.00 0.00 63 1012.3
20260509025026 56 0.0 0.0 0.00 0.00 0.00 63 1012.6
20260509024825 57 0.0 0.0 0.00 0.00 0.00 63 1012.2
20260509024537 56 0.0 0.0 0.00 0.00 0.00 63 1012.6
20260509024332 57 0.0 0.0 0.00 0.00 0.00 63 1012.2
20260509024026 57 0.0 0.0 0.00 0.00 0.00 63 1012.5
20260509023819 57 0.0 0.0 0.00 0.00 0.00 62 1012.2
20260509023526 57 0.0 0.0 0.00 0.00 0.00 61 1012.7
20260509023327 58 0.0 0.0 0.00 0.00 0.00 62 1012.3
20260509023040 57 0.0 0.0 0.00 0.00 0.00 61 1012.6
20260509022833 58 0.0 0.0 0.00 0.00 0.00 61 1012.2
20260509022523 57 0.0 0.0 0.00 0.00 0.00 60 1012.6
20260509022318 58 0.0 0.0 0.00 0.00 0.00 61 1012.2
20260509022023 58 0.0 0.0 0.00 0.00 0.00 60 1012.6
20260509021823 58 0.0 0.0 0.00 0.00 0.00 60 1012.3
20260509021543 58 0.0 0.0 0.00 0.00 0.00 59 1012.6
20260509021327 59 0.0 0.0 0.00 0.00 0.00 59 1012.2
20260509021027 58 0.0 0.0 0.00 0.00 0.00 59 1012.6
20260509020814 59 0.0 0.0 0.00 0.00 0.00 59 1012.2
20260509020526 59 0.0 0.0 0.00 0.00 0.00 58 1012.4
20260509020342 59 0.0 0.0 0.00 0.00 0.00 58 1012.2
20260509020043 59 0.0 0.0 0.00 0.00 0.00 56 1012.5
20260509015849 60 0.0 0.0 0.00 0.00 0.00 56 1012.2
20260509015526 60 0.0 0.0 0.00 0.00 0.00 56 1012.5
20260509015319 60 0.0 0.0 0.00 0.00 0.00 56 1012.1
20260509015025 60 0.0 0.0 0.00 0.00 0.00 55 1012.4
20260509014824 61 0.0 0.0 0.00 0.00 0.00 55 1012.1
20260509014540 60 0.0 0.0 0.00 0.00 0.00 54 1012.4
20260509014349 61 0.0 0.0 0.00 0.00 0.00 55 1012.1
20260509014023 60 0.0 0.0 0.00 0.00 0.00 54 1012.4
20260509013853 61 0.0 0.0 0.00 0.00 0.00 54 1012.1
20260509013528 61 0.0 0.0 0.00 0.00 0.00 53 1012.4
20260509013319 61 0.0 0.0 0.00 0.00 0.00 53 1012.1
20260509013052 61 0.0 0.0 0.00 0.00 0.00 53 1012.5
20260509012827 62 0.0 0.0 0.00 0.00 0.00 52 1012.1
20260509012524 62 0.0 0.0 0.00 0.00 0.00 51 1012.4
20260509012314 62 0.0 0.0 0.00 0.00 0.00 51 1012.1
20260509012023 62 0.0 0.0 0.00 0.00 0.00 50 1012.4
20260509011840 63 0.0 0.0 0.00 0.00 0.00 51 1012.1
20260509011539 62 0.0 0.0 0.00 0.00 0.00 50 1012.4
20260509011326 63 0.0 0.0 0.00 0.00 0.00 50 1012.1
20260509011022 63 0.0 0.0 0.00 0.00 0.00 49 1012.3
20260509010813 63 0.0 0.0 0.00 0.00 0.00 49 1011.9
20260509010525 63 0.0 0.0 0.00 0.00 0.00 49 1012.2
20260509010321 64 0.0 0.0 0.00 0.00 0.00 49 1011.9
20260509010037 63 0.0 0.0 0.00 0.00 0.00 48 1012.3
20260509005849 64 0.0 0.0 0.00 0.00 0.00 48 1011.9
20260509005525 64 0.0 0.0 0.00 0.00 0.00 48 1012.2
20260509005319 64 0.0 0.0 0.00 0.00 0.00 49 1011.8
20260509005025 64 0.0 0.0 0.00 0.00 0.00 49 1012.1
20260509004827 64 0.0 0.0 0.00 0.00 0.00 48 1011.8
20260509004559 64 0.0 0.0 0.00 0.00 0.00 48 1012.0
20260509004335 64 0.0 0.0 0.00 0.00 0.00 50 1011.7
20260509004028 64 0.0 0.0 0.00 0.00 0.00 49 1012.0
20260509003819 65 0.0 0.0 0.00 0.00 0.00 51 1011.7
20260509003526 64 0.0 0.0 0.00 0.00 0.00 46 1012.0
20260509003322 65 0.0 0.0 0.00 0.00 0.00 47 1011.7
20260509003048 64 0.0 0.0 0.00 0.00 0.00 47 1012.0
20260509002827 65 0.0 0.0 0.00 0.00 0.00 47 1011.7
20260509002525 64 0.0 0.0 0.00 0.00 0.00 47 1012.0
20260509002314 65 0.0 0.0 0.00 0.00 0.00 47 1011.7
20260509002026 65 0.0 0.0 0.00 0.00 0.00 46 1012.0
20260509001822 65 0.0 0.0 0.00 0.00 0.00 49 1011.6
20260509001543 65 0.0 0.0 0.00 0.00 0.00 46 1012.0
20260509001329 65 0.0 0.0 0.00 0.00 0.00 46 1011.6
20260509001023 65 0.0 0.0 0.00 0.00 0.00 46 1011.9
20260509000817 66 0.0 0.0 0.00 0.00 0.00 46 1011.5
20260509000523 65 0.0 0.0 0.00 0.00 0.00 45 1011.8
20260509000344 66 0.0 0.0 0.00 0.00 0.00 46 1011.4
20260509000039 65 0.0 0.0 0.00 0.00 0.00 44 1011.6
20260508235814 66 0.0 0.0 0.00 0.00 0.00 44 1011.3
20260508235526 66 0.0 0.0 0.00 0.00 0.00 45 1011.7
20260508235342 66 0.0 0.0 0.00 0.00 0.00 45 1011.3
20260508235026 66 0.0 0.0 0.00 0.00 0.00 46 1011.7
20260508234825 66 0.0 0.0 0.00 0.00 0.00 45 1011.1
20260508234538 66 0.0 0.0 0.00 0.00 0.00 44 1011.5
20260508234330 66 0.0 0.0 0.00 0.00 0.00 44 1011.1
20260508234022 66 0.0 0.0 0.00 0.00 0.00 42 1011.6
20260508233817 66 0.0 0.0 0.00 0.00 0.00 43 1011.1
20260508233526 66 0.0 0.0 0.00 0.00 0.00 41 1011.6
20260508233325 66 0.0 0.0 0.00 0.00 0.00 44 1011.1
20260508233043 66 0.0 0.0 0.00 0.00 0.00 43 1011.6
20260508232832 66 0.0 0.0 0.00 0.00 0.00 43 1011.2
20260508232526 66 0.0 0.0 0.00 0.00 0.00 41 1011.6
20260508232316 66 169 0.0 0.0 0.00 0.00 0.00 46 1011.2
20260508232028 66 0.0 0.0 0.00 0.00 0.00 44 1011.6
20260508231823 66 169 0.0 0.0 0.00 0.00 0.00 43 1011.2
20260508231544 66 0 0.0 0.0 0.00 0.00 0.00 46 1011.5
20260508231330 67 169 0.0 0.0 0.00 0.00 0.00 49 1011.1
20260508231026 66 0 0.0 0.0 0.00 0.00 0.00 46 1011.5
20260508230835 67 169 0.0 0.0 0.00 0.00 0.00 46 1011.0
20260508230525 66 0 0.0 0.0 0.00 0.00 0.00 45 1011.4
20260508230343 67 169 0.0 0.0 0.00 0.00 0.00 45 1010.9
20260508230053 66 0 0.0 0.0 0.00 0.00 0.00 44 1011.4
20260508225834 67 169 0.0 0.0 0.00 0.00 0.00 44 1011.0
20260508225525 66 0 0.0 0.0 0.00 0.00 0.00 44 1011.4
20260508225319 67 169 0.0 0.0 0.00 0.00 0.00 47 1010.9
20260508225024 67 0 0.0 0.0 0.00 0.00 0.00 43 1011.3
20260508224844 67 169 0.0 0.0 0.00 0.00 0.00 45 1010.9
20260508224541 67 0 0.0 0.0 0.00 0.00 0.00 43 1011.3
20260508224328 67 169 0.0 0.0 0.00 0.00 0.00 42 1010.9
20260508224026 67 0 0.0 0.0 0.00 0.00 0.00 43 1011.3
20260508223832 67 169 0.0 0.0 0.00 0.00 0.00 42 1010.7
20260508223525 67 0 0.0 0.0 0.00 0.00 0.00 42 1011.2
20260508223356 67 169 0.0 0.0 0.00 0.00 0.00 42 1010.7
20260508223038 67 0 0.0 0.0 0.00 0.00 0.00 43 1011.3
20260508222819 67 169 0.0 0.0 0.00 0.00 0.00 42 1010.8
20260508222526 67 0 0.0 0.0 0.00 0.00 0.00 40 1011.3
20260508222343 67 169 0.0 0.0 0.00 0.00 0.00 41 1010.9
20260508222026 67 0 0.0 0.0 0.00 0.00 0.00 38 1011.4
20260508221827 67 169 0.0 0.0 0.00 0.00 0.00 39 1010.9
20260508221541 67 0 0.0 0.0 0.00 0.00 0.00 37 1011.4
20260508221331 67 169 0.0 0.0 0.00 0.00 0.00 39 1011.0
20260508221026 67 0 0.0 0.0 0.00 0.00 0.00 38 1011.5
20260508220818 67 120 0.0 0.0 0.00 0.00 0.00 38 1011.1
20260508220525 67 0 0.0 0.0 0.00 0.00 0.00 39 1011.5
20260508220325 67 120 0.0 0.0 0.00 0.00 0.00 39 1011.2
20260508220051 67 0 0.0 0.0 0.00 0.00 0.00 37 1011.6
20260508215816 68 122 0.0 0.0 0.00 0.00 0.00 41 1011.1
20260508215525 67 0 0.0 0.0 0.00 0.00 0.00 40 1011.6
20260508215321 68 122 0.0 0.0 0.00 0.00 0.00 37 1011.1
20260508215025 67 0 0.0 2.0 0.00 0.00 0.00 38 1011.5
20260508214825 68 121 0.0 2.0 0.00 0.00 0.00 36 1011.1
20260508214548 67 0 0.0 2.0 0.00 0.00 0.00 35 1011.4
20260508214344 68 119 0.0 2.0 0.00 0.00 0.00 36 1011.0
20260508214028 68 0 0.0 5.0 0.00 0.00 0.00 35 1011.4
20260508213832 68 278 0.0 5.0 0.00 0.00 0.00 37 1011.0
20260508213525 68 0 0.0 5.0 0.00 0.00 0.00 37 1011.4
20260508213317 69 148 0.0 5.0 0.00 0.00 0.00 35 1011.1
20260508213040 68 180 0.0 4.0 0.00 0.00 0.00 36 1011.5
20260508212824 69 223 0.0 4.0 0.00 0.00 0.00 34 1011.2
20260508212524 69 0 0.0 7.0 0.00 0.00 0.00 34 1011.6
20260508212317 69 321 0.0 6.0 0.00 0.00 0.00 36 1011.1
20260508212028 69 0 0.0 7.0 0.00 0.00 0.00 33 1011.5
20260508211822 70 174 1.0 6.0 0.00 0.00 0.00 33 1011.1
20260508211540 69 340 1.0 9.0 0.00 0.00 0.00 34 1011.5
20260508211327 70 286 1.0 8.0 0.00 0.00 0.00 35 1011.1
20260508211027 69 0 1.0 9.0 0.00 0.00 0.00 35 1011.4
20260508210852 70 310 1.0 8.0 0.00 0.00 0.00 34 1011.1
20260508210526 69 220 1.0 9.0 0.00 0.00 0.00 35 1011.5
20260508210322 70 177 2.0 7.0 0.00 0.00 0.00 34 1011.1
20260508210048 69 212 0.0 8.0 0.00 0.00 0.00 33 1011.4
20260508205825 70 176 1.0 7.0 0.00 0.00 0.00 36 1011.1
20260508205527 69 0 0.0 8.0 0.00 0.00 0.00 33 1011.5
20260508205331 70 246 2.0 7.0 0.00 0.00 0.00 33 1011.1
20260508205029 69 199 1.0 7.0 0.00 0.00 0.00 34 1011.5
20260508204837 70 333 2.0 6.0 0.00 0.00 0.00 34 1011.2
20260508204539 69 187 2.0 7.0 0.00 0.00 0.00 32 1011.5
20260508204322 70 344 1.0 4.0 0.00 0.00 0.00 34 1011.2
20260508204025 69 0 0.0 4.0 0.00 0.00 0.00 37 1011.5
20260508203827 70 301 0.0 4.0 0.00 0.00 0.00 34 1011.1
20260508203525 69 0 0.0 10.0 0.00 0.00 0.00 37 1011.5
20260508203314 70 246 2.0 10.0 0.00 0.00 0.00 36 1011.2
20260508203046 69 356 0.0 11.0 0.00 0.00 0.00 36 1011.5
20260508202822 70 16 1.0 10.0 0.00 0.00 0.00 35 1011.3
20260508202525 69 55 1.0 11.0 0.00 0.00 0.00 34 1011.7
20260508202327 70 190 2.0 10.0 0.00 0.00 0.00 36 1011.4
20260508202025 69 0 1.0 7.0 0.00 0.00 0.00 34 1011.8
20260508201830 70 204 3.0 7.0 0.00 0.00 0.00 34 1011.4
20260508201541 69 0 1.0 7.0 0.00 0.00 0.00 34 1011.8
20260508201318 70 200 2.0 7.0 0.00 0.00 0.00 35 1011.4
20260508201025 69 0 0.0 7.0 0.00 0.00 0.00 35 1011.8
20260508200828 69 314 1.0 7.0 0.00 0.00 0.00 34 1011.6
20260508200525 69 0 0.0 8.0 0.00 0.00 0.00 32 1011.8
20260508200353 69 163 0.0 7.0 0.00 0.00 0.00 34 1011.6
20260508200047 69 0 0.0 10.0 0.00 0.00 0.00 34 1011.9
20260508195837 69 12 2.0 9.0 0.00 0.00 0.00 33 1011.7
20260508195525 69 275 2.0 10.0 0.00 0.00 0.00 33 1011.9
20260508195323 69 296 3.0 9.0 0.00 0.00 0.00 36 1011.7
20260508195030 69 0 1.0 10.0 0.00 0.00 0.00 33 1012.0
20260508194850 69 200 1.0 9.0 0.00 0.00 0.00 35 1011.7
20260508194545 69 0 1.0 10.0 0.00 0.00 0.00 34 1012.0
20260508194337 69 169 1.0 9.0 0.00 0.00 0.00 35 1011.9
20260508194026 69 241 3.0 10.0 0.00 0.00 0.00 32 1012.2
20260508193821 70 215 0.0 9.0 0.00 0.00 0.00 36 1011.9
20260508193527 69 218 2.0 9.0 0.00 0.00 0.00 35 1012.1
20260508193326 70 2 4.0 9.0 0.00 0.00 0.00 35 1011.9
20260508193042 69 38 2.0 9.0 0.00 0.00 0.00 37 1012.2
20260508192830 70 14 2.0 7.0 0.00 0.00 0.00 34 1012.0
20260508192526 69 37 0.0 9.0 0.00 0.00 0.00 33 1012.3
20260508192317 70 213 1.0 8.0 0.00 0.00 0.00 32 1012.2
20260508192026 69 0 3.0 9.0 0.00 0.00 0.00 34 1012.5
20260508191825 70 267 3.0 8.0 0.00 0.00 0.00 35 1012.3
20260508191539 69 0 1.0 10.0 0.00 0.00 0.00 34 1012.5
20260508191329 69 179 1.0 7.0 0.00 0.00 0.00 35 1012.2
20260508191026 69 260 0.0 10.0 0.00 0.00 0.00 34 1012.6
20260508190816 69 213 2.0 9.0 0.00 0.00 0.00 36 1012.3
20260508190526 68 298 1.0 10.0 0.00 0.00 0.00 38 1012.6
20260508190325 69 188 1.0 7.0 0.00 0.00 0.00 36 1012.4
20260508190052 68 179 2.0 7.0 0.00 0.00 0.00 34 1012.7
20260508185813 69 272 1.0 6.0 0.00 0.00 0.00 37 1012.5
20260508185526 68 292 1.0 10.0 0.00 0.00 0.00 35 1012.8
20260508185319 69 241 1.0 9.0 0.00 0.00 0.00 34 1012.5
20260508185025 68 0 1.0 10.0 0.00 0.00 0.00 34 1012.8
20260508184823 69 339 0.0 9.0 0.00 0.00 0.00 35 1012.7
20260508184558 68 0 2.0 10.0 0.00 0.00 0.00 34 1013.0
20260508184331 69 331 2.0 10.0 0.00 0.00 0.00 35 1012.7
20260508184026 68 199 2.0 10.0 0.00 0.00 0.00 37 1012.9
20260508183817 69 215 3.0 10.0 0.00 0.00 0.00 36 1012.7
20260508183526 68 20 2.0 9.0 0.00 0.00 0.00 37 1012.9
20260508183321 69 235 1.0 6.0 0.00 0.00 0.00 34 1012.7
20260508183044 68 39 1.0 9.0 0.00 0.00 0.00 36 1013.0
20260508182825 69 273 3.0 8.0 0.00 0.00 0.00 35 1012.7
20260508182526 68 0 0.0 9.0 0.00 0.00 0.00 33 1012.9
20260508182332 69 251 1.0 8.0 0.00 0.00 0.00 35 1012.7
20260508182026 68 234 1.0 9.0 0.00 0.00 0.00 36 1013.0
20260508181819 68 281 1.0 8.0 0.00 0.00 0.00 36 1012.8
20260508181554 68 246 1.0 9.0 0.00 0.00 0.00 37 1013.0
20260508181327 68 257 2.0 8.0 0.00 0.00 0.00 41 1012.7
20260508181027 67 43 1.0 9.0 0.00 0.00 0.00 38 1013.0
20260508180819 68 224 1.0 8.0 0.00 0.00 0.00 37 1012.8
20260508180526 68 239 2.0 8.0 0.00 0.00 0.00 36 1013.2
20260508180325 68 201 1.0 7.0 0.00 0.00 0.00 38 1013.0
20260508180039 68 31 0.0 8.0 0.00 0.00 0.00 37 1013.3
20260508175830 68 234 1.0 7.0 0.00 0.00 0.00 37 1013.0
20260508175526 68 217 1.0 8.0 0.00 0.00 0.00 37 1013.3
20260508175339 68 201 1.0 8.0 0.00 0.00 0.00 38 1013.0
20260508175029 68 0 1.0 8.0 0.00 0.00 0.00 39 1013.4
20260508174826 68 9 1.0 6.0 0.00 0.00 0.00 37 1013.0
20260508174545 68 34 2.0 6.0 0.00 0.00 0.00 37 1013.4
20260508174333 69 246 1.0 5.0 0.00 0.00 0.00 35 1013.1
20260508174025 68 52 0.0 11.0 0.00 0.00 0.00 41 1013.4
20260508173820 68 27 0.0 10.0 0.00 0.00 0.00 38 1013.1
20260508173526 68 346 1.0 11.0 0.00 0.00 0.00 35 1013.6
20260508173325 68 187 3.0 10.0 0.00 0.00 0.00 37 1013.3
20260508173047 68 0 2.0 11.0 0.00 0.00 0.00 38 1013.7
20260508172831 68 319 2.0 9.0 0.00 0.00 0.00 36 1013.4
20260508172525 68 258 1.0 9.0 0.00 0.00 0.00 36 1013.8
20260508172316 69 209 2.0 9.0 0.00 0.00 0.00 37 1013.4
20260508172025 68 224 0.0 9.0 0.00 0.00 0.00 39 1013.9
20260508171824 68 88 2.0 8.0 0.00 0.00 0.00 45 1013.6
20260508171541 68 229 0.0 10.0 0.00 0.00 0.00 36 1014.0
20260508171329 69 180 1.0 9.0 0.00 0.00 0.00 40 1013.6
20260508171026 68 234 1.0 10.0 0.00 0.00 0.00 37 1014.0
20260508170817 68 291 1.0 9.0 0.00 0.00 0.00 37 1013.7
20260508170526 68 263 2.0 11.0 0.00 0.00 0.00 36 1014.1
20260508170327 68 8 1.0 10.0 0.00 0.00 0.00 38 1013.8
20260508170042 67 0 1.0 11.0 0.00 0.00 0.00 38 1014.1
20260508165833 68 200 3.0 10.0 0.00 0.00 0.00 38 1013.8
20260508165526 67 0 1.0 9.0 0.00 0.00 0.00 37 1014.1
20260508165318 68 183 0.0 6.0 0.00 0.00 0.00 36 1013.8
20260508165026 68 244 1.0 7.0 0.00 0.00 0.00 35 1014.2
20260508164823 69 144 1.0 7.0 0.00 0.00 0.00 35 1013.9
20260508164545 69 259 0.0 11.0 0.00 0.00 0.00 38 1014.3
20260508164320 69 17 1.0 11.0 0.00 0.00 0.00 43 1013.9
20260508164026 68 8 2.0 11.0 0.00 0.00 0.00 39 1014.2
20260508163825 69 348 2.0 11.0 0.00 0.00 0.00 38 1013.9
20260508163529 68 0 2.0 11.0 0.00 0.00 0.00 38 1014.4
20260508163329 69 261 1.0 10.0 0.00 0.00 0.00 38 1014.0
20260508163045 68 0 1.0 11.0 0.00 0.00 0.00 41 1014.4
20260508162821 68 38 1.0 10.0 0.00 0.00 0.00 38 1014.0
20260508162526 68 0 0.0 11.0 0.00 0.00 0.00 39 1014.5
20260508162326 68 200 0.0 10.0 0.00 0.00 0.00 39 1014.1
20260508162029 67 243 1.0 7.0 0.00 0.00 0.00 42 1014.5
20260508161850 67 327 1.0 6.0 0.00 0.00 0.00 42 1014.2
20260508161549 67 218 0.0 7.0 0.00 0.00 0.00 37 1014.6
20260508161355 68 194 1.0 6.0 0.00 0.00 0.00 37 1014.4
20260508161026 67 0 1.0 7.0 0.00 0.00 0.00 37 1014.7
20260508160840 68 348 2.0 6.0 0.00 0.00 0.00 45 1014.3